Regional Weather Roundup
Issued by NWS

Home | Current Version | Previous Version | Text Only | Print | Product List | Glossary Off
Versions: 1 2 3 4 5 6 7 8 9 10 11 12 13 14 15 16 17 18 19 20 21 22 23 24 25 26 27 28 29 30 31 32 33 34 35 36 37 38 39 40 41 42 43 44 45 46 47 48 49 50

000
ASUS43 KLOT 021812
RWRIL

ILLINOIS REGIONAL WEATHER ROUNDUP
NATIONAL WEATHER SERVICE CHICAGO/ROMEOVILLE IL
1200 PM CST FRI DEC 02 2016

NOTE: "FAIR" INDICATES FEW OR NO CLOUDS BELOW 12,000 FEET WITH NO
SIGNIFICANT WEATHER AND/OR OBSTRUCTIONS TO VISIBILITY.

* THESE STATIONS ARE NOT UNDER NWS QUALITY CONTROL. THEY ALSO MAY NOT
  REPORT WEATHER SUCH AS PRECIPITATION OR FOG.

ILZ001-002-007-009-015-016-024-021900-
NORTHWEST ILLINOIS

CITY           SKY/WX    TMP DP  RH WIND       PRES   REMARKS
MOLINE         CLOUDY    41  32  70 NW10      30.22S
6HR MIN TEMP:  37; 6HR MAX TEMP:  41;

SAVANNA*       CLOUDY    38  29  69 NW8G16    30.21R WCI  33
$$

ILZ003-004-008-010-011-017-018-021900-
NORTH CENTRAL ILLINOIS

CITY           SKY/WX    TMP DP  RH WIND       PRES   REMARKS
ROCKFORD       CLOUDY    38  31  76 NW8       30.20S WCI  32
6HR MIN TEMP:  33; 6HR MAX TEMP:  38; 6HR PCP:  0.05;

FREEPORT*      CLOUDY    36  28  73 W13G18    30.21R WCI  27
ROCHELLE*      CLOUDY    38  30  73 NW8       30.19R WCI  32
DE KALB*       CLOUDY    36  32  84 NW8       30.18S WCI  30
$$

ILZ005-006-012>014-019>023-021900-
NORTHEAST ILLINOIS

CITY           SKY/WX    TMP DP  RH WIND       PRES   REMARKS
CHICAGO-OHARE  CLOUDY    40  28  62 NW14      30.15S
6HR MIN TEMP:  37; 6HR MAX TEMP:  40; 6HR PCP: TRACE;

CHICAGO-MIDWAY CLOUDY    39  30  70 W12       30.17S WCI  32
6HR MIN TEMP:  38; 6HR MAX TEMP:  40;

AURORA         LGT RAIN  38  33  82 NW12      30.18S WCI  30
6HR MIN TEMP:  37; 6HR MAX TEMP:  40;

LANSING*       CLOUDY    39  33  78 W10G18    30.18R WCI  32
JOLIET*        LGT RAIN  41  35  81 W10       30.19R
WAUKEGAN       CLOUDY    37  25  61 NW12      30.16R WCI  29
6HR MIN TEMP:  34; 6HR MAX TEMP:  38; 6HR PCP: TRACE;

DUPAGE AIRPORT CLOUDY    38  32  79 W8        30.16S WCI  32
6HR MIN TEMP:  34; 6HR MAX TEMP:  38; 6HR PCP:  0.02;

KANKAKEE*      CLOUDY    40  33  77 W10       30.20S
WHEELING       CLOUDY    37  28  70 NW9       30.18R WCI  30
6HR MIN TEMP:  37; 6HR MAX TEMP:  38;

MORRIS*        CLOUDY    40  34  80 W12       30.18S
ROMEOVILLE*    CLOUDY    39  36  89 W12       30.17S WCI  32
NORTHERLY ISL    N/A     40  29  65 NW6         N/A
$$

LMZ740>746-021900-
SOUTHERN LAKE MICHIGAN

STATION/POSITION SKY/WX   TEMP    WIND        PRES    VSBY  WAVE
                          AIR SEA DIR/SP/G                  HT/PER
                          (F)     (DEG/KT/KT) (MB)    (MI)  (FT/S)
SOUTHERN BUOY              37 49  320/ 16/ 19 1020.7F         3/ 5
HARRISON CRIB              40     330/ 10/ 11   N/A
BURNHAM HARBOR             40     300/ 12       N/A
CALUMET HARBOR             39     270/  4/  8 1020.9S
BURNS HARBOR               40     280/ 17/ 20 1021.3S
MICHIGAN CITY              39     280/ 16/ 17   N/A
$$

ILZ025>027-034>036-040-047-049-050-058-095>099-021900-
WEST-CENTRAL ILLINOIS

CITY           SKY/WX    TMP DP  RH WIND       PRES   REMARKS
QUINCY         PTSUNNY   42  31  64 W7        30.25S
GALESBURG*     CLOUDY    40  32  73 NW8       30.23R
MACOMB*        CLOUDY    43  33  67 NW12      30.26F
JACKSONVILLE*  CLOUDY    40  32  72 NW9       30.25F
PITTSFIELD*    MOSUNNY   43  31  64 W7        30.27S
$$

ILZ028>032-037-038-041>044-048-051>054-059>061-021900-
CENTRAL ILLINOIS

CITY           SKY/WX    TMP DP  RH WIND       PRES   REMARKS
PONTIAC        CLOUDY    40  37  89 W12       30.22S
BLOOMINGTON    CLOUDY    39  32  76 W8        30.22S WCI  33
DECATUR        CLOUDY    41  30  65 W8        30.23F
PEORIA         CLOUDY    42  32  67 W7        30.23S
6HR MIN TEMP:  37; 6HR MAX TEMP:  42;

LACON*         CLOUDY    40  32  73 W9        30.21S
LINCOLN*       CLOUDY    41  34  75 W8        30.24S
SPRINGFIELD    CLOUDY    42  33  70 NW12      30.25F
6HR MIN TEMP:  36; 6HR MAX TEMP:  42;

TAYLORVILLE    CLOUDY    39  30  71 NW13      30.25S WCI  31
6HR MIN TEMP:  33; 6HR MAX TEMP:  39;

$$

ILZ033-039-045-046-055>057-062-063-021900-
EAST-CENTRAL ILLINOIS

CITY           SKY/WX    TMP DP  RH WIND       PRES   REMARKS
CHAMPAIGN      CLOUDY    40  32  73 W14       30.22F
RANTOUL*       CLOUDY    41  36  82 W13       30.21S
MATTOON        CLOUDY    40  29  64 W14       30.23F
PARIS*         CLOUDY    40  34  79 W12G17    30.24S
$$

ILZ079-100>102-021900-
SOUTHWEST ILLINOIS

CITY           SKY/WX    TMP DP  RH WIND       PRES   REMARKS
ALTON          MOSUNNY   43  30  61 W8        30.27S
BELLEVILLE     SUNNY     47  30  51 NW7       30.26S
CAHOKIA*       SUNNY     46  28  49 NW8       30.27S
SPARTA*        SUNNY     44  30  56 NW6       30.28F
$$

ILZ064>066-069>071-074>076-080>082-084>086-088>090-092>094-021900-
SOUTH-CENTRAL ILLINOIS

CITY           SKY/WX    TMP DP  RH WIND       PRES   REMARKS
CARBONDALE     SUNNY     47  31  53 N8        30.28F
6HR MIN TEMP:  25; 6HR MAX TEMP:  47;

CAIRO*         SUNNY     49  30  46 CALM      30.28S
EFFINGHAM*     PTSUNNY   42  33  68 W13G18    30.27S
MARION         SUNNY     46  30  53 NW8       30.28F
CENTRALIA*     SUNNY     44  32  62 NW6       30.26S
SALEM*         MOSUNNY   45  30  57 W6        30.26S
METROPOLIS*    SUNNY     48  31  50 N5        30.28F
$$

ILZ067-068-072-073-078-083-087-091-021900-
SOUTHEAST ILLINOIS

CITY           SKY/WX    TMP DP  RH WIND       PRES   REMARKS
LAWRENCEVILLE  CLOUDY    43  30  60 W10       30.26F
FLORA*         MOSUNNY   45  31  58 NW7       30.27S
FAIRFIELD*     MOSUNNY   43  31  61 CALM      30.26S
HARRISBURG*    SUNNY     46  32  57 W5        30.28S
ROBINSON*      MOSUNNY   41  32  70 W9        30.26S
CARMI*         SUNNY     44  33  66 N6        30.27S
$$

ABBREVIATIONS USED IN REMARKS
   TC - TEMPERATURE IN CELSIUS
  WCI - WIND CHILL INDEX
   HX - HEAT INDEX
  VSB - VISIBILITY
$$





USA.gov is the U.S. government's official web portal to all federal, state and local government web resources and services.